IQUEBE275 Weather Reports


time (UTC)temp
F
wind
direction
speed
knots
gust
knots
rain 1hr
in
rain 24hr
in
rain mn
in
humidity
%
barometer
mb
20260506024005 53 259 0.9 0.0 0.00 0.00 0.28 36 1001.9
20260506023507 53 262 0.0 0.0 0.00 0.00 0.28 36 1001.7
20260506023012 53 261 0.0 0.0 0.00 0.00 0.28 37 1001.7
20260506022542 53 261 0.0 0.0 0.00 0.00 0.28 38 1001.7
20260506022044 53 261 0.0 0.0 0.00 0.00 0.28 39 1001.6
20260506021513 53 262 0.0 0.0 0.00 0.00 0.28 39 1001.6
20260506021018 53 262 0.0 0.0 0.00 0.00 0.28 40 1001.6
20260506015005 53 262 0.0 0.0 0.00 0.00 0.28 44 1001.5
20260506014504 53 262 0.0 0.0 0.00 0.00 0.28 45 1001.3
20260506014045 53 262 0.9 0.0 0.00 0.00 0.28 46 1001.6
20260506013512 53 262 0.9 0.0 0.00 0.00 0.28 46 1001.7
20260506013018 53 261 0.9 0.0 0.00 0.00 0.28 47 1001.8
20260506012515 54 261 1.7 0.0 0.00 0.00 0.28 47 1001.5
20260506012049 54 265 1.7 0.0 0.00 0.00 0.28 47 1001.4
20260506011605 54 274 1.7 0.0 0.00 0.00 0.28 47 1001.3
20260506011052 54 291 1.7 0.0 0.00 0.00 0.27 46 1001.1
20260506010556 54 278 1.7 0.0 0.00 0.00 0.27 45 1001.0
20260506010058 54 257 2.6 0.0 0.00 0.00 0.27 44 1001.1
20260506005601 54 269 1.7 0.0 0.00 0.00 0.27 43 1001.1
20260506005104 54 311 0.9 0.0 0.00 0.00 0.27 41 1001.0
20260506004602 54 313 0.9 0.0 0.00 0.00 0.26 40 1000.7
20260506004106 55 313 0.9 0.0 0.00 0.00 0.26 40 1000.5
20260506003606 55 313 1.7 0.0 0.00 0.00 0.26 39 1000.4
20260506002608 55 305 0.9 0.0 0.00 0.00 0.26 38 1000.2
20260506002110 55 257 0.0 0.0 0.00 0.00 0.26 38 1000.2
20260506001613 55 257 0.9 0.0 0.00 0.00 0.26 38 1000.2
20260506001114 55 257 0.9 0.0 0.00 0.00 0.26 38 1000.2
20260506000620 56 260 0.9 0.0 0.00 0.00 0.26 38 1000.1
20260505235004 56 238 1.7 0.0 0.00 0.00 0.26 41 999.9
20260505234544 56 256 1.7 0.0 0.00 0.00 0.25 42 999.9
20260505234047 56 256 1.7 0.0 0.00 0.00 0.25 42 999.9
20260505233551 57 261 1.7 0.0 0.00 0.00 0.24 43 999.9
20260505233056 57 259 1.7 0.0 0.00 0.00 0.23 44 999.8
20260505232604 57 258 1.7 0.0 0.00 0.00 0.22 45 999.6
20260505232110 57 279 1.7 0.0 0.00 0.00 0.22 45 999.6
20260505230009 57 253 2.6 0.0 0.00 0.00 0.22 47 999.1
20260505225512 57 254 2.6 0.0 0.00 0.00 0.22 47 999.2
20260505225052 57 256 1.7 0.0 0.00 0.00 0.22 47 999.0
20260505224558 58 254 2.6 0.0 0.00 0.00 0.22 48 998.6
20260505224110 58 254 2.6 0.0 0.00 0.00 0.22 48 998.6
20260505222004 58 253 2.6 0.0 0.00 0.00 0.21 51 998.2
20260505221512 58 252 1.7 0.0 0.00 0.00 0.21 52 998.1
20260505221017 58 314 1.7 0.0 0.00 0.00 0.21 51 997.8
20260505220600 58 330 3.5 0.0 0.00 0.00 0.21 51 997.6
20260505220112 58 56 4.3 0.0 0.00 0.00 0.21 50 997.7
20260505212504 61 355 7.8 0.0 0.00 0.00 0.21 58 997.2
20260505212007 62 326 7.0 0.0 0.00 0.00 0.21 61 997.2
20260505211508 63 311 7.8 0.0 0.00 0.00 0.21 62 997.0
20260505211010 64 323 7.8 0.0 0.00 0.00 0.21 64 996.8
20260505210518 66 304 8.7 0.0 0.00 0.00 0.20 65 996.8
20260505210052 67 291 10.4 0.0 0.00 0.00 0.20 65 996.4
20260505205518 68 271 9.6 0.0 0.00 0.00 0.20 64 996.2
20260505205014 68 292 9.6 0.0 0.00 0.00 0.20 65 995.1
20260505204504 68 245 10.4 0.0 0.00 0.00 0.20 65 995.2
20260505202612 68 236 8.7 0.0 0.00 0.00 0.20 65 995.4
20260505202103 68 261 8.7 0.0 0.00 0.00 0.20 65 995.7
20260505201550 68 229 7.8 0.0 0.00 0.00 0.20 65 995.5
20260505201017 68 261 7.0 0.0 0.00 0.00 0.20 65 995.6
20260505200556 68 260 7.0 0.0 0.00 0.00 0.20 65 995.7
20260505200005 68 278 6.1 0.0 0.00 0.00 0.20 64 995.6
20260505195106 68 272 6.1 0.0 0.00 0.00 0.19 63 995.9
20260505194613 68 258 5.2 0.0 0.00 0.00 0.19 63 996.0
20260505194102 68 242 5.2 0.0 0.00 0.00 0.19 62 996.3
20260505193600 68 257 6.1 0.0 0.00 0.00 0.19 62 996.2
20260505193015 67 228 6.1 0.0 0.00 0.00 0.19 58 996.3
20260505192514 66 286 4.3 0.0 0.00 0.00 0.19 56 996.3
20260505192013 65 252 3.5 0.0 0.00 0.00 0.19 53 996.5
20260505191512 64 229 2.6 0.0 0.00 0.00 0.19 50 996.6
20260505191049 63 198 1.7 0.0 0.00 0.00 0.19 48 996.7
20260505190545 62 221 2.6 0.0 0.00 0.00 0.19 47 996.8
20260505190006 62 226 4.3 0.0 0.00 0.00 0.19 41 996.9
20260505185506 61 240 2.6 0.0 0.00 0.00 0.19 35 996.9
20260505185005 61 186 0.9 0.0 0.00 0.00 0.19 33 997.0
20260505184502 60 186 0.9 0.0 0.00 0.00 0.19 32 997.1
20260505184007 60 186 0.9 0.0 0.00 0.00 0.19 32 997.0
20260505183504 59 314 0.9 0.0 0.00 0.00 0.19 32 997.1
20260505183008 59 315 0.9 0.0 0.00 0.00 0.19 33 997.2
20260505182547 58 315 0.9 0.0 0.00 0.00 0.19 33 997.3
20260505182056 59 315 0.0 0.0 0.00 0.00 0.19 32 997.4
20260505181602 58 315 0.0 0.0 0.00 0.00 0.19 32 997.5
20260505175004 56 315 0.0 0.0 0.00 0.00 0.19 35 997.6
20260505174506 56 315 0.0 0.0 0.00 0.00 0.19 36 997.8
20260505174005 56 315 0.0 0.0 0.00 0.00 0.19 37 997.9
20260505173512 56 315 0.0 0.0 0.00 0.00 0.18 38 998.0
20260505173021 56 315 0.0 0.0 0.00 0.00 0.16 39 997.9
20260505172513 56 315 0.0 0.0 0.00 0.00 0.15 39 997.7
20260505172016 56 321 0.9 0.0 0.00 0.00 0.13 40 997.8
20260505171556 56 321 1.7 0.0 0.00 0.00 0.13 41 997.7
20260505171058 56 320 1.7 0.0 0.00 0.00 0.13 43 997.8
20260505170601 56 314 1.7 0.0 0.00 0.00 0.13 44 998.0
20260505170105 57 325 0.9 0.0 0.00 0.00 0.13 46 997.8
20260505165601 57 325 0.9 0.0 0.00 0.00 0.11 49 998.0
20260505165102 58 291 1.7 0.0 0.00 0.00 0.11 51 998.0
20260505164606 58 265 2.6 0.0 0.00 0.00 0.11 54 998.0
20260505163009 62 277 7.0 0.0 0.00 0.00 0.06 64 998.3
20260505162508 62 262 6.1 0.0 0.00 0.00 0.00 65 998.3
20260505162012 62 276 5.2 0.0 0.00 0.00 0.00 65 998.2
20260505161511 63 275 6.1 0.0 0.00 0.00 0.00 66 998.2
20260505161014 63 245 7.0 0.0 0.00 0.00 0.00 66 998.3
20260505160544 63 233 7.0 0.0 0.00 0.00 0.00 66 998.4
20260505153116 67 219 5.2 0.0 0.00 0.00 0.00 63 998.2
20260505152601 67 276 4.3 0.0 0.00 0.00 0.00 60 998.1
20260505140503 60 112 0.9 0.0 0.00 0.00 0.00 63 998.9
20260505123514 53 112 0.0 0.0 0.00 0.00 0.00 67 999.4
20260505123019 53 111 0.0 0.0 0.00 0.00 0.00 67 999.5
20260505122602 53 112 0.0 0.0 0.00 0.00 0.00 67 999.5
20260505120542 51 111 0.9 0.0 0.00 0.00 0.00 66 999.8
20260505120053 51 111 0.9 0.0 0.00 0.00 0.00 65 999.9
20260505115605 50 44 0.0 0.0 0.00 0.00 0.00 64 999.9
20260505115108 50 44 0.0 0.0 0.00 0.00 0.00 62 999.9
20260505114006 48 44 0.0 0.0 0.00 0.00 0.00 55 999.9
20260505113515 47 44 0.0 0.0 0.00 0.00 0.00 54 999.9
20260505113100 46 44 0.0 0.0 0.00 0.00 0.00 53 999.9
20260505111549 44 44 0.0 0.0 0.00 0.00 0.00 46 1000.1
20260505111049 43 44 0.0 0.0 0.00 0.00 0.00 46 1000.1
20260505110558 42 44 0.0 0.0 0.00 0.00 0.00 46 1000.0
20260505110110 42 44 0.0 0.0 0.00 0.00 0.00 45 1000.1
20260505102005 39 44 0.9 0.0 0.00 0.00 0.00 45 1000.1
20260505101609 39 45 1.7 0.0 0.00 0.00 0.00 45 1000.1
20260505033511 43 53 0.9 0.0 0.00 0.00 0.06 61 1003.1
20260505033056 43 53 0.9 0.0 0.00 0.00 0.06 61 1003.1
20260505032011 43 53 0.9 0.0 0.00 0.00 0.06 62 1002.9
20260505031617 43 53 0.9 0.0 0.00 0.00 0.06 62 1003.1
20260505031002 44 53 0.0 0.0 0.00 0.00 0.06 62 1003.1
20260505030556 44 53 0.0 0.0 0.00 0.00 0.06 62 1003.2
20260505030114 44 53 0.9 0.0 0.00 0.00 0.06 62 1003.3
20260505025517 44 53 0.9 0.0 0.00 0.00 0.06 62 1003.3